Time,TemperatureF,DewpointF,PressureIn,WindDirection,WindDirectionDegrees,WindSpeedMPH,WindSpeedGustMPH,Humidity,HourlyPrecipIn,Conditions,Clouds,dailyrainin,SolarRadiationWatts/m^2,SoftwareType,DateUTC
2013-03-13 00:01:00,54.1,40.1,29.98,West,265,4.0,5.0,59,0.00,,---,0.00,0.00,VWS V14.01,2013-03-13 04:01:00,
2013-03-13 00:11:00,53.7,40.2,29.99,West,269,2.0,7.0,60,0.00,,---,0.00,0.00,VWS V14.01,2013-03-13 04:11:00,
2013-03-13 00:19:00,53.6,40.1,30.00,West,277,2.0,2.0,60,0.00,,---,0.00,0.00,VWS V14.01,2013-03-13 04:19:00,
2013-03-13 00:21:00,53.6,40.1,29.99,West,279,3.0,6.0,60,0.00,,---,0.00,0.00,VWS V14.01,2013-03-13 04:21:00,
2013-03-13 00:26:00,53.5,40.0,30.00,West,265,1.0,1.0,60,0.00,,---,0.00,0.00,VWS V14.01,2013-03-13 04:26:00,
2013-03-13 00:32:00,53.3,39.8,30.00,West,265,2.0,3.0,60,0.00,,---,0.00,0.00,VWS V14.01,2013-03-13 04:32:00,
2013-03-13 00:37:00,53.2,39.7,30.00,West,271,3.0,4.0,60,0.00,,---,0.00,0.00,VWS V14.01,2013-03-13 04:37:00,
2013-03-13 00:42:00,53.0,39.5,30.00,West,267,3.0,4.0,60,0.00,,---,0.00,0.00,VWS V14.01,2013-03-13 04:42:00,
2013-03-13 00:47:00,52.9,39.4,30.00,West,280,3.0,5.0,60,0.00,,---,0.00,0.00,VWS V14.01,2013-03-13 04:47:00,
2013-03-13 00:52:00,52.7,39.6,30.00,WNW,285,0.0,4.0,61,0.00,,---,0.00,0.00,VWS V14.01,2013-03-13 04:52:00,
2013-03-13 00:58:00,52.7,39.2,30.00,WNW,284,5.0,7.0,60,0.00,,---,0.00,0.00,VWS V14.01,2013-03-13 04:58:00,
2013-03-13 01:03:00,52.7,38.8,30.01,West,277,3.0,6.0,59,0.00,,---,0.00,0.00,VWS V14.01,2013-03-13 05:03:00,
2013-03-13 01:08:00,52.7,38.8,30.01,WNW,284,0.0,7.0,59,0.00,,---,0.00,0.00,VWS V14.01,2013-03-13 05:08:00,
2013-03-13 01:13:00,52.8,38.9,30.01,WNW,290,1.0,5.0,59,0.00,,---,0.00,0.00,VWS V14.01,2013-03-13 05:13:00,
2013-03-13 01:18:00,52.7,38.8,30.01,WNW,283,4.0,8.0,59,0.00,,---,0.00,0.00,VWS V14.01,2013-03-13 05:18:00,
2013-03-13 01:23:00,52.8,38.9,30.01,WNW,282,0.0,6.0,59,0.00,,---,0.00,0.00,VWS V14.01,2013-03-13 05:23:00,
2013-03-13 01:28:00,52.7,38.8,30.01,NW,311,3.0,7.0,59,0.00,,---,0.00,0.00,VWS V14.01,2013-03-13 05:28:00,
2013-03-13 01:33:00,52.6,38.7,30.01,WNW,302,2.0,4.0,59,0.00,,---,0.00,0.00,VWS V14.01,2013-03-13 05:33:00,
2013-03-13 01:38:00,52.5,38.6,30.02,WNW,286,4.0,5.0,59,0.00,,---,0.00,0.00,VWS V14.01,2013-03-13 05:38:00,
2013-03-13 01:43:00,52.3,38.4,30.02,WNW,282,4.0,6.0,59,0.00,,---,0.00,0.00,VWS V14.01,2013-03-13 05:43:00,
2013-03-13 01:49:00,52.2,38.3,30.02,NNW,333,2.0,6.0,59,0.00,,---,0.00,0.00,VWS V14.01,2013-03-13 05:49:00,
2013-03-13 01:54:00,52.0,38.1,30.02,WNW,286,6.0,6.0,59,0.00,,---,0.00,0.00,VWS V14.01,2013-03-13 05:54:00,
2013-03-13 01:59:00,51.8,37.9,30.02,WNW,292,0.0,4.0,59,0.00,,---,0.00,0.00,VWS V14.01,2013-03-13 05:59:00,
2013-03-13 02:04:00,51.5,38.1,30.02,WNW,290,0.0,4.0,60,0.00,,---,0.00,0.00,VWS V14.01,2013-03-13 06:04:00,
2013-03-13 02:09:00,51.3,37.9,30.02,NNW,336,1.0,6.0,60,0.00,,---,0.00,0.00,VWS V14.01,2013-03-13 06:09:00,
2013-03-13 02:14:00,51.1,37.7,30.02,WNW,288,0.0,5.0,60,0.00,,---,0.00,0.00,VWS V14.01,2013-03-13 06:14:00,
2013-03-13 02:19:00,50.9,37.5,30.03,WNW,287,4.0,4.0,60,0.00,,---,0.00,0.00,VWS V14.01,2013-03-13 06:19:00,
2013-03-13 02:24:00,50.7,37.3,30.03,WNW,289,0.0,3.0,60,0.00,,---,0.00,0.00,VWS V14.01,2013-03-13 06:24:00,
2013-03-13 02:29:00,50.5,37.6,30.03,WNW,290,2.0,6.0,61,0.00,,---,0.00,0.00,VWS V14.01,2013-03-13 06:29:00,
2013-03-13 02:35:00,50.3,37.4,30.03,WNW,288,2.0,3.0,61,0.00,,---,0.00,0.00,VWS V14.01,2013-03-13 06:35:00,
2013-03-13 02:40:00,50.1,37.2,30.03,WNW,295,0.0,3.0,61,0.00,,---,0.00,0.00,VWS V14.01,2013-03-13 06:40:00,
2013-03-13 02:45:00,49.9,37.0,30.03,WNW,289,0.0,4.0,61,0.00,,---,0.00,0.00,VWS V14.01,2013-03-13 06:45:00,
2013-03-13 02:50:00,49.7,37.2,30.03,WNW,296,0.0,2.0,62,0.00,,---,0.00,0.00,VWS V14.01,2013-03-13 06:50:00,
2013-03-13 02:55:00,49.6,37.1,30.03,WNW,289,1.0,2.0,62,0.00,,---,0.00,0.00,VWS V14.01,2013-03-13 06:55:00,
2013-03-13 03:00:00,49.4,36.9,30.03,NW,305,0.0,2.0,62,0.00,,---,0.00,0.00,VWS V14.01,2013-03-13 07:00:00,
2013-03-13 03:05:00,49.2,36.8,30.03,NW,306,0.0,2.0,62,0.00,,---,0.00,0.00,VWS V14.01,2013-03-13 07:05:00,
2013-03-13 03:10:00,49.1,36.7,30.03,NW,323,0.0,5.0,62,0.00,,---,0.00,0.00,VWS V14.01,2013-03-13 07:10:00,
2013-03-13 03:15:00,48.9,36.5,30.03,WNW,297,0.0,1.0,62,0.00,,---,0.00,0.00,VWS V14.01,2013-03-13 07:15:00,
2013-03-13 03:21:00,48.8,36.4,30.03,WNW,302,0.0,4.0,62,0.00,,---,0.00,0.00,VWS V14.01,2013-03-13 07:21:00,
2013-03-13 03:26:00,48.6,36.2,30.03,NW,304,0.0,1.0,62,0.00,,---,0.00,0.00,VWS V14.01,2013-03-13 07:26:00,
2013-03-13 03:31:00,48.4,36.4,30.03,NW,304,0.0,3.0,63,0.00,,---,0.00,0.00,VWS V14.01,2013-03-13 07:31:00,
2013-03-13 03:36:00,48.3,36.3,30.03,NW,304,1.0,1.0,63,0.00,,---,0.00,0.00,VWS V14.01,2013-03-13 07:36:00,
2013-03-13 03:41:00,48.1,36.1,30.03,NW,304,0.0,0.0,63,0.00,,---,0.00,0.00,VWS V14.01,2013-03-13 07:41:00,
2013-03-13 03:46:00,47.9,36.3,30.03,NW,304,0.0,0.0,64,0.00,,---,0.00,0.00,VWS V14.01,2013-03-13 07:46:00,
2013-03-13 03:52:00,47.6,36.0,30.03,NW,304,0.0,0.0,64,0.00,,---,0.00,0.00,VWS V14.01,2013-03-13 07:52:00,
2013-03-13 03:57:00,47.4,36.2,30.04,NW,304,0.0,0.0,65,0.00,,---,0.00,0.00,VWS V14.01,2013-03-13 07:57:00,
2013-03-13 04:02:00,47.1,36.3,30.04,NW,304,0.0,0.0,66,0.00,,---,0.00,0.00,VWS V14.01,2013-03-13 08:02:00,
2013-03-13 04:08:00,46.9,36.2,30.04,NW,304,0.0,0.0,66,0.00,,---,0.00,0.00,VWS V14.01,2013-03-13 08:08:00,
2013-03-13 04:13:00,46.6,35.9,30.04,NW,304,0.0,0.0,66,0.00,,---,0.00,0.00,VWS V14.01,2013-03-13 08:13:00,
2013-03-13 04:18:00,46.4,35.7,30.04,NW,304,0.0,2.0,66,0.00,,---,0.00,0.00,VWS V14.01,2013-03-13 08:18:00,
2013-03-13 04:23:00,46.2,35.5,30.05,NW,304,0.0,0.0,66,0.00,,---,0.00,0.00,VWS V14.01,2013-03-13 08:23:00,
2013-03-13 04:28:00,46.0,35.7,30.04,NW,304,0.0,0.0,67,0.00,,---,0.00,0.00,VWS V14.01,2013-03-13 08:28:00,
2013-03-13 04:33:00,45.8,35.5,30.04,NW,304,0.0,0.0,67,0.00,,---,0.00,0.00,VWS V14.01,2013-03-13 08:33:00,
2013-03-13 04:38:00,45.6,35.3,30.04,NW,304,0.0,0.0,67,0.00,,---,0.00,0.00,VWS V14.01,2013-03-13 08:38:00,
2013-03-13 04:43:00,45.5,35.2,30.05,NW,304,0.0,0.0,67,0.00,,---,0.00,0.00,VWS V14.01,2013-03-13 08:43:00,
2013-03-13 04:49:00,45.4,35.1,30.05,NW,304,0.0,0.0,67,0.00,,---,0.00,0.00,VWS V14.01,2013-03-13 08:49:00,
2013-03-13 04:54:00,45.2,34.9,30.05,NW,304,0.0,2.0,67,0.00,,---,0.00,0.00,VWS V14.01,2013-03-13 08:54:00,
2013-03-13 04:59:00,45.1,35.2,30.05,NW,304,0.0,0.0,68,0.00,,---,0.00,0.00,VWS V14.01,2013-03-13 08:59:00,
2013-03-13 05:04:00,44.9,35.0,30.05,NW,304,0.0,0.0,68,0.00,,---,0.00,0.00,VWS V14.01,2013-03-13 09:04:00,
2013-03-13 05:09:00,44.8,34.9,30.05,NW,304,0.0,0.0,68,0.00,,---,0.00,0.00,VWS V14.01,2013-03-13 09:09:00,
2013-03-13 05:14:00,44.7,34.8,30.06,NW,304,0.0,0.0,68,0.00,,---,0.00,0.00,VWS V14.01,2013-03-13 09:14:00,
2013-03-13 05:19:00,44.6,35.1,30.06,NW,304,0.0,1.0,69,0.00,,---,0.00,0.00,VWS V14.01,2013-03-13 09:19:00,
2013-03-13 05:24:00,44.4,34.9,30.06,NW,304,0.0,0.0,69,0.00,,---,0.00,0.00,VWS V14.01,2013-03-13 09:24:00,
2013-03-13 05:30:00,44.3,34.8,30.06,NW,304,0.0,0.0,69,0.00,,---,0.00,0.00,VWS V14.01,2013-03-13 09:30:00,
2013-03-13 05:35:00,44.1,35.0,30.06,NW,304,0.0,0.0,70,0.00,,---,0.00,0.00,VWS V14.01,2013-03-13 09:35:00,
2013-03-13 05:40:00,43.9,34.8,30.06,NW,304,0.0,0.0,70,0.00,,---,0.00,0.00,VWS V14.01,2013-03-13 09:40:00,
2013-03-13 05:45:00,43.8,34.7,30.06,NW,304,0.0,1.0,70,0.00,,---,0.00,0.00,VWS V14.01,2013-03-13 09:45:00,
2013-03-13 05:50:00,43.6,34.8,30.07,NW,304,0.0,0.0,71,0.00,,---,0.00,0.00,VWS V14.01,2013-03-13 09:50:00,
2013-03-13 05:55:00,43.6,34.8,30.08,NW,304,0.0,0.0,71,0.00,,---,0.00,0.00,VWS V14.01,2013-03-13 09:55:00,
2013-03-13 06:00:00,43.5,34.4,30.08,NW,304,0.0,0.0,70,0.00,,---,0.00,0.00,VWS V14.01,2013-03-13 10:00:00,
2013-03-13 06:06:00,43.4,34.6,30.08,NW,304,0.0,0.0,71,0.00,,---,0.00,0.00,VWS V14.01,2013-03-13 10:06:00,
2013-03-13 06:11:00,43.1,34.3,30.08,NW,304,0.0,0.0,71,0.00,,---,0.00,0.00,VWS V14.01,2013-03-13 10:11:00,
2013-03-13 06:16:00,42.9,34.5,30.08,NW,304,0.0,0.0,72,0.00,,---,0.00,0.00,VWS V14.01,2013-03-13 10:16:00,
2013-03-13 06:21:00,42.6,34.6,30.09,NW,304,0.0,0.0,73,0.00,,---,0.00,0.00,VWS V14.01,2013-03-13 10:21:00,
2013-03-13 06:26:00,42.3,33.9,30.09,NW,304,0.0,0.0,72,0.00,,---,0.00,0.00,VWS V14.01,2013-03-13 10:26:00,
2013-03-13 06:31:00,42.0,34.0,30.09,NW,304,0.0,0.0,73,0.00,,---,0.00,0.00,VWS V14.01,2013-03-13 10:31:00,
2013-03-13 06:36:00,41.7,34.0,30.09,NW,304,0.0,0.0,74,0.00,,---,0.00,0.00,VWS V14.01,2013-03-13 10:36:00,
2013-03-13 06:41:00,41.4,34.1,30.10,NW,304,0.0,0.0,75,0.00,,---,0.00,0.00,VWS V14.01,2013-03-13 10:41:00,
2013-03-13 06:47:00,41.1,33.8,30.10,NW,304,0.0,0.0,75,0.00,,---,0.00,0.00,VWS V14.01,2013-03-13 10:47:00,
2013-03-13 06:52:00,40.9,33.9,30.10,NW,304,0.0,0.0,76,0.00,,---,0.00,0.00,VWS V14.01,2013-03-13 10:52:00,
2013-03-13 06:57:00,40.5,34.2,30.10,NW,304,0.0,1.0,78,0.00,,---,0.00,0.00,VWS V14.01,2013-03-13 10:57:00,
2013-03-13 07:02:00,40.2,34.2,30.11,NW,304,0.0,0.0,79,0.00,,---,0.00,0.00,VWS V14.01,2013-03-13 11:02:00,
2013-03-13 07:07:00,39.9,34.2,30.11,NW,304,0.0,0.0,80,0.00,,---,0.00,0.00,VWS V14.01,2013-03-13 11:07:00,
2013-03-13 07:12:00,39.6,34.3,30.11,NW,304,0.0,0.0,81,0.00,,---,0.00,0.00,VWS V14.01,2013-03-13 11:12:00,
2013-03-13 07:17:00,39.3,34.0,30.11,NW,304,0.0,0.0,81,0.00,,---,0.00,0.00,VWS V14.01,2013-03-13 11:17:00,
2013-03-13 07:23:00,39.0,34.0,30.11,NW,304,0.0,0.0,82,0.00,,---,0.00,0.00,VWS V14.01,2013-03-13 11:23:00,
2013-03-13 07:28:00,38.9,33.9,30.11,NW,304,0.0,0.0,82,0.00,,---,0.00,0.00,VWS V14.01,2013-03-13 11:28:00,
2013-03-13 07:33:00,38.8,33.8,30.11,NW,304,0.0,0.0,82,0.00,,---,0.00,0.00,VWS V14.01,2013-03-13 11:33:00,
2013-03-13 07:38:00,38.7,34.0,30.12,NW,304,0.0,0.0,83,0.00,,---,0.00,5.00,VWS V14.01,2013-03-13 11:38:00,
2013-03-13 07:43:00,38.7,34.0,30.12,NW,304,0.0,0.0,83,0.00,,---,0.00,9.00,VWS V14.01,2013-03-13 11:43:00,
2013-03-13 07:48:00,38.6,33.6,30.12,NW,304,0.0,0.0,82,0.00,,---,0.00,12.00,VWS V14.01,2013-03-13 11:48:00,
2013-03-13 07:53:00,38.6,33.6,30.12,NW,304,0.0,0.0,82,0.00,,---,0.00,16.00,VWS V14.01,2013-03-13 11:53:00,
2013-03-13 07:59:00,38.5,33.5,30.12,NW,304,0.0,0.0,82,0.00,,---,0.00,18.00,VWS V14.01,2013-03-13 11:59:00,
2013-03-13 08:04:00,38.5,33.5,30.12,NW,304,0.0,0.0,82,0.00,,---,0.00,21.00,VWS V14.01,2013-03-13 12:04:00,
2013-03-13 08:09:00,38.4,33.7,30.12,NW,304,0.0,0.0,83,0.00,,---,0.00,25.00,VWS V14.01,2013-03-13 12:09:00,
2013-03-13 08:14:00,38.4,33.7,30.12,NW,304,0.0,0.0,83,0.00,,---,0.00,28.00,VWS V14.01,2013-03-13 12:14:00,
2013-03-13 08:19:00,38.5,34.4,30.12,NW,304,0.0,0.0,85,0.00,,---,0.00,30.00,VWS V14.01,2013-03-13 12:19:00,
2013-03-13 08:24:00,38.6,34.5,30.13,NW,304,0.0,0.0,85,0.00,,---,0.00,35.00,VWS V14.01,2013-03-13 12:24:00,
2013-03-13 08:30:00,38.7,34.9,30.13,NW,304,0.0,0.0,86,0.00,,---,0.00,47.00,VWS V14.01,2013-03-13 12:30:00,
2013-03-13 08:35:00,39.0,35.5,30.13,WNW,303,0.0,0.0,87,0.00,,---,0.00,65.00,VWS V14.01,2013-03-13 12:35:00,
2013-03-13 08:40:00,39.3,35.8,30.13,WNW,303,0.0,0.0,87,0.00,,---,0.00,77.00,VWS V14.01,2013-03-13 12:40:00,
2013-03-13 08:45:00,39.7,35.9,30.13,WNW,303,0.0,0.0,86,0.00,,---,0.00,100.00,VWS V14.01,2013-03-13 12:45:00,
2013-03-13 08:50:00,40.3,36.5,30.13,WNW,300,0.0,1.0,86,0.00,,---,0.00,132.00,VWS V14.01,2013-03-13 12:50:00,
2013-03-13 08:55:00,41.0,36.8,30.13,West,262,0.0,0.0,85,0.00,,---,0.00,158.00,VWS V14.01,2013-03-13 12:55:00,
2013-03-13 09:00:00,41.8,37.0,30.14,West,269,0.0,1.0,83,0.00,,---,0.00,185.00,VWS V14.01,2013-03-13 13:00:00,
2013-03-13 09:05:00,42.8,36.8,30.14,West,277,0.0,4.0,79,0.00,,---,0.00,188.00,VWS V14.01,2013-03-13 13:05:00,
2013-03-13 09:11:00,43.8,37.1,30.14,North,355,2.0,4.0,77,0.00,,---,0.00,237.00,VWS V14.01,2013-03-13 13:11:00,
2013-03-13 09:16:00,44.7,37.3,30.15,WNW,288,0.0,6.0,75,0.00,,---,0.00,257.00,VWS V14.01,2013-03-13 13:16:00,
2013-03-13 09:21:00,45.7,37.5,30.14,WNW,286,0.0,5.0,73,0.00,,---,0.00,281.00,VWS V14.01,2013-03-13 13:21:00,
2013-03-13 09:26:00,46.4,36.8,30.14,WNW,283,0.0,3.0,69,0.00,,---,0.00,297.00,VWS V14.01,2013-03-13 13:26:00,
2013-03-13 09:31:00,47.1,37.5,30.14,West,277,1.0,3.0,69,0.00,,---,0.00,315.00,VWS V14.01,2013-03-13 13:31:00,
2013-03-13 09:36:00,47.7,37.3,30.15,West,281,0.0,0.0,67,0.00,,---,0.00,332.00,VWS V14.01,2013-03-13 13:36:00,
2013-03-13 09:41:00,48.3,37.5,30.14,NW,312,1.0,1.0,66,0.00,,---,0.00,346.00,VWS V14.01,2013-03-13 13:41:00,
2013-03-13 09:46:00,48.9,38.8,30.15,WSW,243,0.0,0.0,68,0.00,,---,0.00,357.00,VWS V14.01,2013-03-13 13:46:00,
2013-03-13 09:52:00,49.3,39.2,30.15,WSW,244,0.0,3.0,68,0.00,,---,0.00,366.00,VWS V14.01,2013-03-13 13:52:00,
2013-03-13 09:57:00,49.7,39.2,30.14,WSW,247,0.0,0.0,67,0.00,,---,0.00,373.00,VWS V14.01,2013-03-13 13:57:00,
2013-03-13 10:02:00,50.1,39.2,30.14,SW,233,0.0,3.0,66,0.00,,---,0.00,378.00,VWS V14.01,2013-03-13 14:02:00,
2013-03-13 10:07:00,50.7,39.4,30.15,West,273,0.0,5.0,65,0.00,,---,0.00,383.00,VWS V14.01,2013-03-13 14:07:00,
2013-03-13 10:12:00,51.2,39.0,30.14,West,269,0.0,3.0,63,0.00,,---,0.00,383.00,VWS V14.01,2013-03-13 14:12:00,
2013-03-13 10:17:00,51.7,38.7,30.15,West,261,0.0,5.0,61,0.00,,---,0.00,383.00,VWS V14.01,2013-03-13 14:17:00,
2013-03-13 10:23:00,52.2,38.3,30.15,WSW,257,4.0,6.0,59,0.00,,---,0.00,378.00,VWS V14.01,2013-03-13 14:23:00,
2013-03-13 10:28:00,52.6,37.8,30.15,West,261,4.0,7.0,57,0.00,,---,0.00,385.00,VWS V14.01,2013-03-13 14:28:00,
2013-03-13 10:33:00,53.1,38.7,30.14,WSW,246,3.0,8.0,58,0.00,,---,0.00,394.00,VWS V14.01,2013-03-13 14:33:00,
2013-03-13 10:38:00,53.6,37.8,30.14,West,270,0.0,6.0,55,0.00,,---,0.00,415.00,VWS V14.01,2013-03-13 14:38:00,
2013-03-13 10:43:00,54.1,37.4,30.14,West,275,5.0,8.0,53,0.00,,---,0.00,452.00,VWS V14.01,2013-03-13 14:43:00,
2013-03-13 10:48:00,54.6,37.3,30.14,WSW,250,8.0,10.0,52,0.00,,---,0.00,494.00,VWS V14.01,2013-03-13 14:48:00,
2013-03-13 10:53:00,55.0,36.2,30.14,West,261,6.0,8.0,49,0.00,,---,0.00,522.00,VWS V14.01,2013-03-13 14:53:00,
2013-03-13 10:58:00,55.2,36.4,30.14,WNW,287,4.0,6.0,49,0.00,,---,0.00,550.00,VWS V14.01,2013-03-13 14:58:00,
2013-03-13 11:03:00,55.5,36.7,30.14,West,278,6.0,9.0,49,0.00,,---,0.00,580.00,VWS V14.01,2013-03-13 15:03:00,
2013-03-13 11:09:00,55.9,34.3,30.14,West,281,5.0,7.0,44,0.00,,---,0.00,608.00,VWS V14.01,2013-03-13 15:09:00,
2013-03-13 11:14:00,56.7,35.0,30.14,West,274,4.0,9.0,44,0.00,,---,0.00,624.00,VWS V14.01,2013-03-13 15:14:00,
2013-03-13 11:19:00,57.2,32.5,30.14,WSW,255,5.0,7.0,39,0.00,,---,0.00,635.00,VWS V14.01,2013-03-13 15:19:00,
2013-03-13 11:24:00,57.7,31.6,30.14,NW,322,4.0,16.0,37,0.00,,---,0.00,691.00,VWS V14.01,2013-03-13 15:24:00,
2013-03-13 11:29:00,58.0,33.8,30.14,NW,309,11.0,15.0,40,0.00,,---,0.00,749.00,VWS V14.01,2013-03-13 15:29:00,
2013-03-13 11:34:00,58.4,31.6,30.14,West,267,4.0,13.0,36,0.00,,---,0.00,775.00,VWS V14.01,2013-03-13 15:34:00,
2013-03-13 11:39:00,58.6,31.0,30.13,West,271,10.0,13.0,35,0.00,,---,0.00,779.00,VWS V14.01,2013-03-13 15:39:00,
2013-03-13 11:44:00,58.7,31.1,30.13,West,262,6.0,18.0,35,0.00,,---,0.00,805.00,VWS V14.01,2013-03-13 15:44:00,
2013-03-13 11:50:00,59.1,32.2,30.13,WSW,251,16.0,17.0,36,0.00,,---,0.00,780.00,VWS V14.01,2013-03-13 15:50:00,
2013-03-13 11:55:00,59.1,32.2,30.13,WNW,292,12.0,16.0,36,0.00,,---,0.00,803.00,VWS V14.01,2013-03-13 15:55:00,
2013-03-13 12:00:00,59.3,31.7,30.13,NW,326,7.0,17.0,35,0.00,,---,0.00,838.00,VWS V14.01,2013-03-13 16:00:00,
2013-03-13 12:05:00,59.3,31.0,30.12,WNW,285,9.0,17.0,34,0.00,,---,0.00,779.00,VWS V14.01,2013-03-13 16:05:00,
2013-03-13 12:10:00,59.3,30.2,30.12,West,271,11.0,26.0,33,0.00,,---,0.00,708.00,VWS V14.01,2013-03-13 16:10:00,
2013-03-13 12:15:00,59.4,32.5,30.12,WNW,289,13.0,19.0,36,0.00,,---,0.00,703.00,VWS V14.01,2013-03-13 16:15:00,
2013-03-13 12:20:00,59.7,31.3,30.12,NW,307,13.0,19.0,34,0.00,,---,0.00,772.00,VWS V14.01,2013-03-13 16:20:00,
2013-03-13 12:25:00,59.6,31.2,30.11,WNW,289,11.0,19.0,34,0.00,,---,0.00,856.00,VWS V14.01,2013-03-13 16:25:00,
2013-03-13 12:30:00,59.5,31.9,30.11,West,278,8.0,19.0,35,0.00,,---,0.00,867.00,VWS V14.01,2013-03-13 16:30:00,
2013-03-13 12:35:00,59.8,32.1,30.11,West,269,7.0,16.0,35,0.00,,---,0.00,867.00,VWS V14.01,2013-03-13 16:35:00,
2013-03-13 12:40:00,60.0,30.8,30.11,SW,225,9.0,21.0,33,0.00,,---,0.00,877.00,VWS V14.01,2013-03-13 16:40:00,
2013-03-13 12:46:00,60.2,32.5,30.11,WNW,298,10.0,16.0,35,0.00,,---,0.00,882.00,VWS V14.01,2013-03-13 16:46:00,
2013-03-13 12:51:00,60.4,31.2,30.11,WNW,294,13.0,23.0,33,0.00,,---,0.00,893.00,VWS V14.01,2013-03-13 16:51:00,
2013-03-13 12:57:00,60.4,30.4,30.11,West,276,13.0,14.0,32,0.00,,---,0.00,886.00,VWS V14.01,2013-03-13 16:57:00,
2013-03-13 13:02:00,61.0,32.5,30.10,West,266,12.0,15.0,34,0.00,,---,0.00,893.00,VWS V14.01,2013-03-13 17:02:00,
2013-03-13 13:07:00,61.3,32.0,30.09,West,267,8.0,9.0,33,0.00,,---,0.00,902.00,VWS V14.01,2013-03-13 17:07:00,
2013-03-13 13:12:00,61.4,31.3,30.09,West,259,10.0,15.0,32,0.00,,---,0.00,904.00,VWS V14.01,2013-03-13 17:12:00,
2013-03-13 13:17:00,61.6,33.0,30.09,West,267,8.0,9.0,34,0.00,,---,0.00,902.00,VWS V14.01,2013-03-13 17:17:00,
2013-03-13 13:22:00,62.0,33.3,30.09,West,261,15.0,22.0,34,0.00,,---,0.00,907.00,VWS V14.01,2013-03-13 17:22:00,
2013-03-13 13:28:00,61.9,32.5,30.09,WNW,298,12.0,15.0,33,0.00,,---,0.00,909.00,VWS V14.01,2013-03-13 17:28:00,
2013-03-13 13:33:00,62.0,33.3,30.08,WNW,295,7.0,13.0,34,0.00,,---,0.00,918.00,VWS V14.01,2013-03-13 17:33:00,
2013-03-13 13:38:00,62.0,32.6,30.08,West,269,10.0,17.0,33,0.00,,---,0.00,925.00,VWS V14.01,2013-03-13 17:38:00,
2013-03-13 13:43:00,61.7,31.6,30.08,West,278,6.0,17.0,32,0.00,,---,0.00,905.00,VWS V14.01,2013-03-13 17:43:00,
2013-03-13 13:48:00,61.8,31.6,30.08,SSW,213,22.0,22.0,32,0.00,,---,0.00,911.00,VWS V14.01,2013-03-13 17:48:00,
2013-03-13 13:53:00,61.7,30.0,30.07,West,260,16.0,23.0,30,0.00,,---,0.00,911.00,VWS V14.01,2013-03-13 17:53:00,
2013-03-13 13:58:00,61.7,30.8,30.07,West,281,8.0,16.0,31,0.00,,---,0.00,905.00,VWS V14.01,2013-03-13 17:58:00,
2013-03-13 14:03:00,61.8,31.6,30.07,WSW,258,17.0,19.0,32,0.00,,---,0.00,905.00,VWS V14.01,2013-03-13 18:03:00,
2013-03-13 14:08:00,61.7,30.8,30.06,West,277,10.0,20.0,31,0.00,,---,0.00,904.00,VWS V14.01,2013-03-13 18:08:00,
2013-03-13 14:13:00,62.0,31.0,30.06,West,264,18.0,20.0,31,0.00,,---,0.00,898.00,VWS V14.01,2013-03-13 18:13:00,
2013-03-13 14:18:00,61.9,31.7,30.06,WSW,257,13.0,20.0,32,0.00,,---,0.00,893.00,VWS V14.01,2013-03-13 18:18:00,
2013-03-13 14:24:00,62.2,31.2,30.06,WNW,293,11.0,17.0,31,0.00,,---,0.00,884.00,VWS V14.01,2013-03-13 18:24:00,
2013-03-13 14:29:00,62.2,31.2,30.06,West,280,6.0,15.0,31,0.00,,---,0.00,879.00,VWS V14.01,2013-03-13 18:29:00,
2013-03-13 14:34:00,62.1,31.1,30.05,WSW,243,14.0,22.0,31,0.00,,---,0.00,881.00,VWS V14.01,2013-03-13 18:34:00,
2013-03-13 14:39:00,62.5,32.3,30.05,WSW,238,11.0,15.0,32,0.00,,---,0.00,870.00,VWS V14.01,2013-03-13 18:39:00,
2013-03-13 14:44:00,62.8,32.5,30.05,West,261,8.0,20.0,32,0.00,,---,0.00,867.00,VWS V14.01,2013-03-13 18:44:00,
2013-03-13 14:49:00,62.4,31.4,30.05,West,276,10.0,24.0,31,0.00,,---,0.00,853.00,VWS V14.01,2013-03-13 18:49:00,
2013-03-13 14:54:00,63.1,32.0,30.04,West,276,12.0,16.0,31,0.00,,---,0.00,853.00,VWS V14.01,2013-03-13 18:54:00,
2013-03-13 14:59:00,63.1,32.0,30.04,WSW,254,20.0,20.0,31,0.00,,---,0.00,838.00,VWS V14.01,2013-03-13 18:59:00,
2013-03-13 15:04:00,62.8,29.2,30.03,West,274,9.0,24.0,28,0.00,,---,0.00,814.00,VWS V14.01,2013-03-13 19:04:00,
2013-03-13 15:10:00,62.8,30.1,30.03,WSW,257,19.0,23.0,29,0.00,,---,0.00,798.00,VWS V14.01,2013-03-13 19:10:00,
2013-03-13 15:15:00,62.6,30.8,30.03,WSW,248,8.0,20.0,30,0.00,,---,0.00,768.00,VWS V14.01,2013-03-13 19:15:00,
2013-03-13 15:20:00,63.0,31.1,30.02,WSW,253,14.0,16.0,30,0.00,,---,0.00,745.00,VWS V14.01,2013-03-13 19:20:00,
2013-03-13 15:25:00,63.8,31.0,30.03,West,264,17.0,18.0,29,0.00,,---,0.00,707.00,VWS V14.01,2013-03-13 19:25:00,
2013-03-13 15:30:00,63.8,29.2,30.03,West,275,17.0,20.0,27,0.00,,---,0.00,330.00,VWS V14.01,2013-03-13 19:30:00,
2013-03-13 15:35:00,63.4,28.9,30.02,NNW,340,10.0,20.0,27,0.00,,---,0.00,642.00,VWS V14.01,2013-03-13 19:35:00,
2013-03-13 15:40:00,63.3,27.9,30.02,WNW,292,11.0,20.0,26,0.00,,---,0.00,615.00,VWS V14.01,2013-03-13 19:40:00,
2013-03-13 15:45:00,63.6,29.0,30.02,WNW,289,16.0,17.0,27,0.00,,---,0.00,592.00,VWS V14.01,2013-03-13 19:45:00,
2013-03-13 15:50:00,63.5,29.8,30.02,West,259,13.0,23.0,28,0.00,,---,0.00,573.00,VWS V14.01,2013-03-13 19:50:00,
2013-03-13 15:55:00,64.0,29.4,30.02,SW,221,19.0,20.0,27,0.00,,---,0.00,564.00,VWS V14.01,2013-03-13 19:55:00,
2013-03-13 16:00:00,63.9,29.3,30.01,West,270,14.0,20.0,27,0.00,,---,0.00,564.00,VWS V14.01,2013-03-13 20:00:00,
2013-03-13 16:06:00,63.8,28.3,30.02,West,280,11.0,18.0,26,0.00,,---,0.00,564.00,VWS V14.01,2013-03-13 20:06:00,
2013-03-13 16:11:00,63.7,30.9,30.01,WSW,256,11.0,21.0,29,0.00,,---,0.00,578.00,VWS V14.01,2013-03-13 20:11:00,
2013-03-13 16:16:00,63.7,30.9,30.01,WSW,238,14.0,19.0,29,0.00,,---,0.00,589.00,VWS V14.01,2013-03-13 20:16:00,
2013-03-13 16:21:00,63.8,30.1,30.02,WNW,297,8.0,20.0,28,0.00,,---,0.00,601.00,VWS V14.01,2013-03-13 20:21:00,
2013-03-13 16:26:00,64.1,30.4,30.01,WNW,293,10.0,15.0,28,0.00,,---,0.00,603.00,VWS V14.01,2013-03-13 20:26:00,
2013-03-13 16:31:00,64.2,29.5,30.01,West,277,6.0,17.0,27,0.00,,---,0.00,603.00,VWS V14.01,2013-03-13 20:31:00,
2013-03-13 16:36:00,64.1,30.4,30.01,WSW,253,9.0,24.0,28,0.00,,---,0.00,601.00,VWS V14.01,2013-03-13 20:36:00,
2013-03-13 16:41:00,63.8,30.1,30.01,West,265,14.0,22.0,28,0.00,,---,0.00,585.00,VWS V14.01,2013-03-13 20:41:00,
2013-03-13 16:46:00,63.6,30.8,30.00,SW,220,16.0,16.0,29,0.00,,---,0.00,566.00,VWS V14.01,2013-03-13 20:46:00,
2013-03-13 16:51:00,63.7,28.2,30.01,WSW,246,15.0,15.0,26,0.00,,---,0.00,552.00,VWS V14.01,2013-03-13 20:51:00,
2013-03-13 16:56:00,63.5,28.0,30.01,West,259,14.0,19.0,26,0.00,,---,0.00,462.00,VWS V14.01,2013-03-13 20:56:00,
2013-03-13 17:01:00,63.5,28.0,30.01,West,277,15.0,20.0,26,0.00,,---,0.00,67.00,VWS V14.01,2013-03-13 21:01:00,
2013-03-13 17:07:00,63.7,29.1,30.02,NW,311,6.0,20.0,27,0.00,,---,0.00,104.00,VWS V14.01,2013-03-13 21:07:00,
2013-03-13 17:12:00,63.5,28.0,30.02,WNW,289,9.0,10.0,26,0.00,,---,0.00,476.00,VWS V14.01,2013-03-13 21:12:00,
2013-03-13 17:17:00,63.4,27.9,30.02,West,274,9.0,12.0,26,0.00,,---,0.00,461.00,VWS V14.01,2013-03-13 21:17:00,
2013-03-13 17:22:00,63.3,28.8,30.02,WNW,294,11.0,15.0,27,0.00,,---,0.00,443.00,VWS V14.01,2013-03-13 21:22:00,
2013-03-13 17:27:00,63.0,26.6,30.02,West,279,5.0,11.0,25,0.00,,---,0.00,424.00,VWS V14.01,2013-03-13 21:27:00,
2013-03-13 17:32:00,62.8,27.4,30.02,WNW,290,8.0,18.0,26,0.00,,---,0.00,408.00,VWS V14.01,2013-03-13 21:32:00,
2013-03-13 17:37:00,62.6,28.2,30.02,WNW,291,6.0,11.0,27,0.00,,---,0.00,387.00,VWS V14.01,2013-03-13 21:37:00,
2013-03-13 17:43:00,62.5,26.2,30.02,WNW,294,11.0,16.0,25,0.00,,---,0.00,367.00,VWS V14.01,2013-03-13 21:43:00,
2013-03-13 17:48:00,62.2,26.0,30.02,WSW,257,9.0,17.0,25,0.00,,---,0.00,352.00,VWS V14.01,2013-03-13 21:48:00,
2013-03-13 17:53:00,62.0,25.8,30.02,West,274,6.0,21.0,25,0.00,,---,0.00,330.00,VWS V14.01,2013-03-13 21:53:00,
2013-03-13 17:58:00,61.8,25.6,30.02,WNW,300,5.0,13.0,25,0.00,,---,0.00,304.00,VWS V14.01,2013-03-13 21:58:00,
2013-03-13 18:03:00,61.6,25.5,30.02,WNW,302,12.0,17.0,25,0.00,,---,0.00,288.00,VWS V14.01,2013-03-13 22:03:00,
2013-03-13 18:08:00,61.3,26.1,30.03,WNW,285,7.0,17.0,26,0.00,,---,0.00,265.00,VWS V14.01,2013-03-13 22:08:00,
2013-03-13 18:13:00,61.2,27.0,30.02,North,11,11.0,16.0,27,0.00,,---,0.00,243.00,VWS V14.01,2013-03-13 22:13:00,
2013-03-13 18:18:00,61.1,27.8,30.02,West,266,13.0,16.0,28,0.00,,---,0.00,218.00,VWS V14.01,2013-03-13 22:18:00,
2013-03-13 18:24:00,60.8,26.6,30.03,West,281,12.0,21.0,27,0.00,,---,0.00,195.00,VWS V14.01,2013-03-13 22:24:00,
2013-03-13 18:29:00,60.5,27.3,30.03,West,271,8.0,15.0,28,0.00,,---,0.00,171.00,VWS V14.01,2013-03-13 22:29:00,
2013-03-13 18:34:00,60.3,27.9,30.03,NW,312,10.0,15.0,29,0.00,,---,0.00,144.00,VWS V14.01,2013-03-13 22:34:00,
2013-03-13 18:39:00,60.0,26.8,30.03,WSW,256,8.0,14.0,28,0.00,,---,0.00,127.00,VWS V14.01,2013-03-13 22:39:00,
2013-03-13 18:44:00,60.0,27.7,30.03,NW,306,5.0,14.0,29,0.00,,---,0.00,107.00,VWS V14.01,2013-03-13 22:44:00,
2013-03-13 18:49:00,59.7,28.2,30.03,West,281,4.0,15.0,30,0.00,,---,0.00,90.00,VWS V14.01,2013-03-13 22:49:00,
2013-03-13 18:54:00,59.5,27.2,30.04,West,279,8.0,12.0,29,0.00,,---,0.00,72.00,VWS V14.01,2013-03-13 22:54:00,
2013-03-13 19:00:00,59.2,27.8,30.04,West,280,8.0,15.0,30,0.00,,---,0.00,56.00,VWS V14.01,2013-03-13 23:00:00,
2013-03-13 19:05:00,58.9,27.5,30.04,WNW,300,13.0,14.0,30,0.00,,---,0.00,42.00,VWS V14.01,2013-03-13 23:05:00,
2013-03-13 19:10:00,58.5,27.2,30.04,WNW,283,6.0,13.0,30,0.00,,---,0.00,30.00,VWS V14.01,2013-03-13 23:10:00,
2013-03-13 19:15:00,58.1,26.9,30.04,WNW,295,9.0,15.0,30,0.00,,---,0.00,23.00,VWS V14.01,2013-03-13 23:15:00,
2013-03-13 19:20:00,57.7,27.3,30.05,WNW,286,10.0,13.0,31,0.00,,---,0.00,16.00,VWS V14.01,2013-03-13 23:20:00,
2013-03-13 19:25:00,57.4,27.0,30.05,WNW,286,8.0,14.0,31,0.00,,---,0.00,11.00,VWS V14.01,2013-03-13 23:25:00,
2013-03-13 19:30:00,57.0,26.7,30.05,WNW,299,8.0,17.0,31,0.00,,---,0.00,7.00,VWS V14.01,2013-03-13 23:30:00,
2013-03-13 19:35:00,56.8,27.3,30.06,WNW,294,5.0,14.0,32,0.00,,---,0.00,0.00,VWS V14.01,2013-03-13 23:35:00,
2013-03-13 19:40:00,56.5,27.0,30.06,WSW,248,8.0,14.0,32,0.00,,---,0.00,0.00,VWS V14.01,2013-03-13 23:40:00,
2013-03-13 19:45:00,56.2,26.0,30.06,West,269,12.0,16.0,31,0.00,,---,0.00,0.00,VWS V14.01,2013-03-13 23:45:00,
2013-03-13 19:50:00,56.1,26.7,30.07,WNW,296,14.0,18.0,32,0.00,,---,0.00,0.00,VWS V14.01,2013-03-13 23:50:00,
2013-03-13 19:55:00,55.9,26.5,30.07,West,271,7.0,13.0,32,0.00,,---,0.00,0.00,VWS V14.01,2013-03-13 23:55:00,
2013-03-13 20:01:00,55.6,27.0,30.07,WNW,295,11.0,17.0,33,0.00,,---,0.00,0.00,VWS V14.01,2013-03-14 00:01:00,
2013-03-13 20:06:00,55.4,26.8,30.07,WNW,284,4.0,9.0,33,0.00,,---,0.00,0.00,VWS V14.01,2013-03-14 00:06:00,
2013-03-13 20:11:00,55.1,26.5,30.08,NW,304,9.0,14.0,33,0.00,,---,0.00,0.00,VWS V14.01,2013-03-14 00:11:00,
2013-03-13 20:16:00,55.0,27.2,30.08,WNW,298,6.0,10.0,34,0.00,,---,0.00,0.00,VWS V14.01,2013-03-14 00:16:00,
2013-03-13 20:21:00,54.8,27.0,30.08,WNW,291,4.0,4.0,34,0.00,,---,0.00,0.00,VWS V14.01,2013-03-14 00:21:00,
2013-03-13 20:26:00,54.5,27.4,30.09,West,281,2.0,3.0,35,0.00,,---,0.00,0.00,VWS V14.01,2013-03-14 00:26:00,
2013-03-13 20:32:00,54.1,27.8,30.09,West,269,8.0,8.0,36,0.00,,---,0.00,0.00,VWS V14.01,2013-03-14 00:32:00,
2013-03-13 20:37:00,53.8,27.5,30.09,WNW,290,4.0,6.0,36,0.00,,---,0.00,0.00,VWS V14.01,2013-03-14 00:37:00,
2013-03-13 20:42:00,53.5,27.9,30.10,West,277,3.0,4.0,37,0.00,,---,0.00,0.00,VWS V14.01,2013-03-14 00:42:00,
2013-03-13 20:47:00,53.4,27.1,30.10,NW,305,1.0,10.0,36,0.00,,---,0.00,0.00,VWS V14.01,2013-03-14 00:47:00,
2013-03-13 20:52:00,53.3,27.0,30.10,WNW,284,5.0,7.0,36,0.00,,---,0.00,0.00,VWS V14.01,2013-03-14 00:52:00,
2013-03-13 20:57:00,53.2,27.0,30.10,West,275,5.0,6.0,36,0.00,,---,0.00,0.00,VWS V14.01,2013-03-14 00:57:00,
2013-03-13 21:02:00,53.0,27.4,30.10,West,271,5.0,5.0,37,0.00,,---,0.00,0.00,VWS V14.01,2013-03-14 01:02:00,
2013-03-13 21:07:00,52.8,27.3,30.10,WNW,284,5.0,8.0,37,0.00,,---,0.00,0.00,VWS V14.01,2013-03-14 01:07:00,
2013-03-13 21:13:00,52.7,27.8,30.10,WNW,284,4.0,7.0,38,0.00,,---,0.00,0.00,VWS V14.01,2013-03-14 01:13:00,
2013-03-13 21:18:00,52.5,27.0,30.10,WNW,292,7.0,7.0,37,0.00,,---,0.00,0.00,VWS V14.01,2013-03-14 01:18:00,
2013-03-13 21:23:00,52.4,27.6,30.11,West,271,6.0,6.0,38,0.00,,---,0.00,0.00,VWS V14.01,2013-03-14 01:23:00,
2013-03-13 21:28:00,52.3,26.8,30.11,WNW,294,3.0,8.0,37,0.00,,---,0.00,0.00,VWS V14.01,2013-03-14 01:28:00,
2013-03-13 21:33:00,52.0,27.2,30.11,WNW,294,8.0,11.0,38,0.00,,---,0.00,0.00,VWS V14.01,2013-03-14 01:33:00,
2013-03-13 21:38:00,51.9,27.1,30.11,West,281,4.0,8.0,38,0.00,,---,0.00,0.00,VWS V14.01,2013-03-14 01:38:00,
2013-03-13 21:43:00,51.9,27.1,30.11,West,265,6.0,7.0,38,0.00,,---,0.00,0.00,VWS V14.01,2013-03-14 01:43:00,
2013-03-13 21:48:00,51.8,27.0,30.11,West,275,5.0,10.0,38,0.00,,---,0.00,0.00,VWS V14.01,2013-03-14 01:48:00,
2013-03-13 21:53:00,51.7,26.3,30.12,WNW,288,4.0,9.0,37,0.00,,---,0.00,0.00,VWS V14.01,2013-03-14 01:53:00,
2013-03-13 21:58:00,51.7,26.3,30.12,West,279,7.0,14.0,37,0.00,,---,0.00,0.00,VWS V14.01,2013-03-14 01:58:00,
2013-03-13 22:03:00,51.6,26.2,30.12,WNW,296,4.0,8.0,37,0.00,,---,0.00,0.00,VWS V14.01,2013-03-14 02:03:00,
2013-03-13 22:08:00,51.4,26.7,30.12,WNW,292,5.0,13.0,38,0.00,,---,0.00,0.00,VWS V14.01,2013-03-14 02:08:00,
2013-03-13 22:14:00,51.3,26.6,30.12,WNW,283,5.0,6.0,38,0.00,,---,0.00,0.00,VWS V14.01,2013-03-14 02:14:00,
2013-03-13 22:19:00,51.1,26.4,30.12,NW,324,4.0,13.0,38,0.00,,---,0.00,0.00,VWS V14.01,2013-03-14 02:19:00,
2013-03-13 22:24:00,50.9,26.2,30.13,North,355,5.0,8.0,38,0.00,,---,0.00,0.00,VWS V14.01,2013-03-14 02:24:00,
2013-03-13 22:29:00,50.7,26.0,30.13,WNW,290,1.0,8.0,38,0.00,,---,0.00,0.00,VWS V14.01,2013-03-14 02:29:00,
2013-03-13 22:34:00,50.5,26.5,30.13,NW,307,3.0,6.0,39,0.00,,---,0.00,0.00,VWS V14.01,2013-03-14 02:34:00,
2013-03-13 22:39:00,50.3,26.3,30.13,WNW,298,2.0,8.0,39,0.00,,---,0.00,0.00,VWS V14.01,2013-03-14 02:39:00,
2013-03-13 22:44:00,50.1,26.1,30.14,WNW,297,2.0,9.0,39,0.00,,---,0.00,0.00,VWS V14.01,2013-03-14 02:44:00,
2013-03-13 22:49:00,50.0,26.0,30.14,West,271,6.0,8.0,39,0.00,,---,0.00,0.00,VWS V14.01,2013-03-14 02:49:00,
2013-03-13 22:54:00,49.7,25.8,30.14,WNW,292,8.0,9.0,39,0.00,,---,0.00,0.00,VWS V14.01,2013-03-14 02:54:00,
2013-03-13 22:59:00,49.6,25.7,30.14,NW,309,0.0,7.0,39,0.00,,---,0.00,0.00,VWS V14.01,2013-03-14 02:59:00,
2013-03-13 23:05:00,49.4,25.5,30.15,NNW,336,0.0,8.0,39,0.00,,---,0.00,0.00,VWS V14.01,2013-03-14 03:05:00,
2013-03-13 23:10:00,49.2,25.3,30.15,NW,306,0.0,8.0,39,0.00,,---,0.00,0.00,VWS V14.01,2013-03-14 03:10:00,
2013-03-13 23:15:00,49.0,25.8,30.15,WNW,298,0.0,8.0,40,0.00,,---,0.00,0.00,VWS V14.01,2013-03-14 03:15:00,
2013-03-13 23:20:00,48.7,25.5,30.15,WNW,288,8.0,8.0,40,0.00,,---,0.00,0.00,VWS V14.01,2013-03-14 03:20:00,
2013-03-13 23:25:00,48.5,25.9,30.15,WNW,286,0.0,6.0,41,0.00,,---,0.00,0.00,VWS V14.01,2013-03-14 03:25:00,
2013-03-13 23:30:00,48.2,25.6,30.15,West,279,3.0,7.0,41,0.00,,---,0.00,0.00,VWS V14.01,2013-03-14 03:30:00,
2013-03-13 23:35:00,47.9,25.9,30.16,NW,319,6.0,8.0,42,0.00,,---,0.00,0.00,VWS V14.01,2013-03-14 03:35:00,
2013-03-13 23:40:00,47.7,25.8,30.16,NW,316,0.0,6.0,42,0.00,,---,0.00,0.00,VWS V14.01,2013-03-14 03:40:00,
2013-03-13 23:45:00,47.5,25.6,30.16,West,279,1.0,6.0,42,0.00,,---,0.00,0.00,VWS V14.01,2013-03-14 03:45:00,
2013-03-13 23:50:00,47.3,25.4,30.16,WNW,291,3.0,7.0,42,0.00,,---,0.00,0.00,VWS V14.01,2013-03-14 03:50:00,
2013-03-13 23:55:00,47.0,25.7,30.16,WNW,289,8.0,10.0,43,0.00,,---,0.00,0.00,VWS V14.01,2013-03-14 03:55:00,